Regional Weather Roundup
Issued by NWS

Home | Current Version | Previous Version | Graphics & Text | Print | Product List | Glossary On
Versions: 1 2 3 4 5 6 7 8 9 10 11 12 13 14 15 16 17 18 19 20 21 22 23 24 25 26 27 28 29 30 31 32 33 34 35 36 37 38 39 40 41 42 43 44 45 46 47 48 49 50
188
ASUS45 KSLC 291010
RWRUT

UTAH REGIONAL WEATHER ROUNDUP
NATIONAL WEATHER SERVICE SALT LAKE CITY UT
400 AM MDT THU SEP 29 2016

UTZ001>011-023>025-291100-

NORTHERN UTAH

CITY           SKY/WX    TMP DP  RH WIND       PRES   REMARKS
BRIGHAM CITY     N/A     57  50  79 SE3       30.19R
HILL AFB       NOT AVBL
LOGAN          MOCLDY    55  51  86 NE5       30.19S
OGDEN          CLOUDY    62  49  62 S10       30.18R
PROVO AIRPORT  MOCLDY    57  51  80 E5        30.22S
SALT LAKE CITY MOCLDY    63  50  62 S8        30.17S
VERNAL         CLOUDY    58  50  75 NE5       30.29S
WENDOVER       PTCLDY    61  46  59 CALM      30.17S
HEBER CITY     PTCLDY    48  43  81 CALM      30.26R
WEST JORDAN    PTCLDY    59  48  65 SW6       30.21R

$$

UTZ012>022-026-027-291100-

SOUTHERN/CENTRAL UTAH

CITY           SKY/WX    TMP DP  RH WIND       PRES   REMARKS
BLANDING       CLOUDY    57  52  82 N5        30.43F
BRYCE CANYON   FOG       44  43  96 CALM      30.42S VSB 1/2
CEDAR CITY     CLOUDY    55  45  68 CALM      30.26F
DELTA          CLEAR     55  45  67 S8        30.23S
MILFORD        CLEAR     51  44  77 SW8       30.23F
MOAB/CYNLANDS  CLOUDY    66  50  56 E3        30.28R
PRICE          CLOUDY    61  44  53 S6        30.35R
ST GEORGE      MOSUNNY   66  48  52 SE3       30.18S

$$

REGIONAL REPORTS     COLORADO/ARIZONA

CITY           SKY/WX    TMP DP  RH WIND       PRES   REMARKS
CRAIG, CO      CLOUDY    44  38  79 SE5       30.38R
GRAND JUNCTION MOCLDY    64  42  44 S3        30.27R
RIFLE          CLOUDY    54  44  69 SE3       30.34R
MONTROSE       CLEAR     58  39  49 S8        30.37R
CORTEZ         LGT RAIN  55  52  89 NE8       30.38F
PAGE, AZ       CLOUDY    62  58  86 CALM      30.28S
GRAND CANYON   CLOUDY    55  51  86 E6        30.37F
KINGMAN        MOCLDY    67  47  48 SE9       30.14F
FLAGSTAFF      CLOUDY    51  51 100 CALM      30.39S

$$

REGIONAL REPORTS    NEVADA/IDAHO/WYOMING

CITY           SKY/WX    TMP DP  RH WIND       PRES   REMARKS
LAS VEGAS, NV  CLOUDY    74  46  36 S5        30.07S
ELY            CLOUDY    54  41  61 S12       30.28S
ELKO           MOCLDY    65  39  38 S3        30.16R
POCATELLO, ID  MOCLDY    57  48  72 N7        30.15R
EVANSTON, WY   CLOUDY    54  39  57 SE7       30.36R
ROCK SPRINGS   CLOUDY    57  39  51 SW10      30.37R

$$




USA.gov is the U.S. government's official web portal to all federal, state and local government web resources and services.